Temp_Advection
nan nan nan nan nan nan nan nan nan nan nan nan nan nan nan nan nan nan nan nan nan nan nan nan nan nan nan nan nan nan nan nan nan nan nan nan nan nan nan nan nan nan nan nan nan nan nan nan nan
nan -0 -0 0 -0 -0 -0 -1 -0 -2 -0 -2 -2 -2 -1 -0 -0 0 0 0 0 0 -0 -0 -0 -0 -0 -0 0 -0 -0 -0 -0 -0 0 -0 -0 -0 -0 -0 -0 0 0 -0 -0 -0 -1 -1 nan
nan -0 0 -0 -0 -0 -0 0 -0 -2 1 -2 -1 -1 -0 -0 -0 -0 -0 0 0 -0 -0 -0 0 0 0 -0 -0 -0 0 0 0 0 0 -0 -0 -0 -0 -0 -0 -0 -0 -0 -0 -0 -1 -1 nan
nan -0 0 -0 1 0 -0 -2 -1 -3 -0 -2 -2 -1 -0 0 -0 -0 0 0 0 0 -0 0 0 0 -0 -0 0 0 0 -0 -0 -0 -0 -0 -0 -0 -0 -0 -0 -1 -0 -0 0 0 -1 -1 nan
nan 0 -0 0 -0 -0 0 -2 -1 -0 -1 -2 -0 -1 -0 0 0 -0 -0 0 0 0 0 0 0 -0 0 -0 -0 -0 -0 -0 -0 -0 -0 -0 -0 -0 -1 -1 -0 -1 -1 -1 -0 -0 -1 -1 nan
nan 0 -0 -0 -1 -0 -1 -1 -1 -0 -0 -0 -1 -1 -0 0 0 -0 -0 -0 0 0 -0 -0 0 0 -0 -0 -0 -0 -0 -0 -0 -0 -0 -0 -0 -0 -1 -1 -0 -0 -1 -1 -1 -1 -1 -1 nan
nan -0 -0 0 -0 -0 -0 -1 -0 -0 0 -0 -3 -1 -0 0 0 0 -0 -0 0 0 0 -0 -0 -0 -0 -0 -0 -0 -0 -0 -0 -0 -0 -0 -0 -0 -0 -0 -0 -0 -0 -1 -1 -1 -0 -0 nan
nan -0 -1 -0 0 -0 -0 -1 -0 -1 -1 0 -1 -0 -0 -0 0 -0 -0 -0 0 -0 -0 -0 -0 -0 -0 -0 -0 -0 -0 -0 -0 -0 -0 -0 0 0 -0 -0 -0 -0 -0 0 -0 -0 -0 -0 nan
nan 0 -0 -0 -0 -0 0 -1 -1 -1 -1 -0 -0 -0 -0 -0 -0 -0 -0 -1 -0 -0 -0 -0 -0 -0 -0 -0 -0 -0 -0 -0 -0 -0 -0 0 0 0 -0 -0 -0 -0 -0 0 0 0 0 -0 nan
nan -0 -1 -0 -2 -2 -1 -0 -1 -1 -1 -0 0 1 0 0 0 -0 -1 -1 -0 -1 -1 -0 -0 -0 -0 -0 -0 -0 -0 -0 -0 0 -0 -0 0 -0 -0 -0 -0 -0 -0 -0 0 0 0 -0 nan
nan -0 -0 -1 -1 -1 -2 -2 -0 -1 -1 -1 -0 -0 0 -0 -0 -0 -0 -1 -0 -0 -0 -0 -0 -0 -0 -0 -0 -0 -0 -0 -0 0 -0 -0 -0 0 0 -0 -0 -0 -0 -0 -0 -0 -0 -0 nan
nan -0 1 -0 -0 -1 -2 -1 -1 -1 -1 -1 0 0 -0 -0 0 0 -1 -0 -0 -0 -0 -0 -0 -0 -0 -0 -0 -0 -0 0 -0 -0 -0 0 -0 -0 -0 -0 -0 -0 -0 -0 -0 -0 -0 -0 nan
nan 0 -2 -5 -3 -2 -1 -1 -0 -0 -0 0 -0 0 0 0 0 1 0 -0 -0 0 -0 -0 -0 -0 -0 -0 -0 -0 -0 -0 -0 -0 -0 -0 -0 -0 -0 -0 -0 -0 -0 -0 -0 -0 -0 -0 nan
nan -0 -1 -4 -1 -1 -2 -0 -0 -0 -0 0 1 -0 -0 0 0 0 0 -0 -0 -0 -0 -0 -0 -0 -0 -0 -0 -0 -0 -0 -0 0 -0 0 0 -0 -0 -0 -0 -0 -0 -0 -0 -0 -0 -0 nan
nan 0 0 -2 -2 -0 -3 -1 -0 0 -0 -0 0 0 0 0 0 -0 0 0 -0 -0 -0 -1 -0 -0 -0 -0 -0 -0 -0 -0 -0 -0 0 0 0 -0 -0 -0 -0 -0 -0 -0 -0 -0 -0 -0 nan
nan -0 0 -0 -1 -1 -1 -1 -0 0 -1 -0 1 1 1 0 0 0 0 -0 -0 -0 -0 -0 -0 -0 -0 -0 -0 -0 -0 -0 -0 -0 -0 -0 0 0 0 -0 -0 -0 -0 -0 -0 -0 -0 -0 nan
nan 0 -0 -0 0 -1 -0 -1 -0 -1 -0 -0 0 1 1 0 0 0 0 -0 -0 -0 -0 -0 -0 -0 -0 -0 -0 -0 -0 -0 -0 0 -0 -0 -0 0 0 0 0 -0 -0 -0 -0 -0 -0 -0 nan
nan -0 -0 0 -1 -2 -1 -0 -0 -1 -1 -0 0 0 0 0 0 0 0 -0 -0 -0 -0 -0 -0 -0 -0 -0 -0 -0 -0 -0 -0 -0 -0 -0 -0 -0 -0 0 0 0 0 -0 -0 -0 -0 -0 nan
nan -0 0 -1 -1 -1 -1 -1 -0 -1 -1 -0 -0 0 0 0 0 0 0 -0 -0 -0 -0 -0 -0 -0 -0 -0 -0 -0 -0 -0 -0 -0 -0 -0 -0 -0 -0 0 0 0 0 -0 -0 -1 -1 -1 nan
nan -0 -0 -0 -3 -1 -0 -0 -1 -0 -0 -0 -0 -0 0 0 0 0 -0 -0 -0 -0 -0 -0 -0 -0 -0 -0 -0 -0 -0 -0 -0 -0 -0 -0 -0 -0 -0 -0 -0 -0 -0 -0 -0 -0 -1 -1 nan
nan -0 -0 -0 -2 -2 -2 -0 -0 -0 -0 -1 -0 -0 0 0 0 0 -0 -0 -0 -0 -0 -0 -0 0 -0 -0 -0 -0 -0 -0 -0 -0 -0 -0 -0 -0 -0 -0 -0 -0 -0 -0 -0 -0 -0 -1 nan
nan -0 0 -1 -1 -0 -1 -0 -0 -0 -0 -0 -0 -0 -0 0 -0 0 -0 -0 -0 -0 -0 -0 0 0 0 -0 -0 -0 -1 -0 -0 -0 -0 -0 -0 -0 -0 -0 -0 -0 -0 -0 -0 -0 -0 -0 nan
nan -0 0 1 0 -0 0 -1 -0 -0 -0 -0 -0 -0 -0 -0 -0 -0 -0 -0 -0 -0 -0 -0 0 -0 -0 -0 -0 -0 -0 -0 -0 -0 -0 -0 -0 -0 -0 -0 -0 -0 0 0 -0 -0 -0 -0 nan
nan 0 0 -0 -0 -0 -0 -1 0 -0 -1 -1 -0 -1 -0 -0 0 -0 -0 -0 -0 -0 -0 -0 -0 -0 -0 0 -0 -0 -0 -0 -0 -0 -0 -0 -0 -0 -0 -0 -0 0 0 0 0 0 0 -0 nan
nan -0 0 -0 -0 -0 -0 -1 -0 -0 0 -1 -1 -0 -0 0 -0 -0 -0 -0 -0 -0 0 -0 -0 -0 -0 -0 -0 -0 -0 -0 -0 -0 -0 -0 -0 -0 -0 -0 -0 0 0 0 0 0 0 0 nan
nan -0 -0 -0 -0 -0 -1 -0 -0 -1 -1 -1 -1 -0 -0 0 0 0 -0 -0 -0 0 0 -0 -0 -0 -0 -0 -0 0 0 -0 -0 -0 -0 -0 -0 -0 -0 -0 -0 0 0 0 0 0 0 0 nan
nan -0 -0 0 0 -1 -0 -1 -1 -1 -1 -1 -1 -0 -0 -0 0 -0 -0 -0 -0 -0 -0 -0 -0 -0 -0 -0 0 0 0 -0 -0 -0 -0 -0 -0 -0 -0 -0 -0 -0 -0 -0 -0 0 0 0 nan
nan 0 0 0 0 -0 -0 -0 -1 -1 -0 -0 -1 -1 -1 -0 -0 -0 -0 -0 -0 -0 -0 -0 -0 -0 -0 -0 -0 0 0 -0 -0 -0 -0 -0 -0 -0 -0 -0 -0 -0 -0 -0 0 0 0 0 nan
nan 0 0 0 -0 0 -0 0 -1 -1 -1 -1 -1 -1 -1 -0 -0 -0 -0 -0 -0 -0 -0 -0 -0 -0 -0 -0 -0 -0 -0 -0 -0 -0 -0 -0 -0 -0 -0 0 -0 -0 0 -0 -0 -0 0 -0 nan
nan nan nan nan nan nan nan nan nan nan nan nan nan nan nan nan nan nan nan nan nan nan nan nan nan nan nan nan nan nan nan nan nan nan nan nan nan nan nan nan nan nan nan nan nan nan nan nan nan
Wind_Speed
7 3 4 3 4 4 3 9 3 10 3 15 28 24 19 17 7 9 18 10 13 10 7 5 9 6 8 7 5 4 7 7 8 9 10 11 12 12 12 11 12 12 14 14 16 16 18 18 18
5 4 3 3 4 3 3 16 13 21 10 27 27 21 17 10 17 22 17 16 12 10 8 8 9 6 5 6 5 3 6 8 9 10 9 11 12 13 11 13 15 15 14 15 16 16 19 19 19
2 3 2 3 3 2 1 2 6 29 16 13 10 22 9 5 7 8 20 19 14 10 10 10 7 2 2 4 5 3 5 7 9 10 11 11 13 12 13 15 16 15 15 16 16 17 20 20 20
3 2 5 4 9 3 4 17 25 24 18 20 24 13 10 12 13 22 23 15 13 13 11 8 5 2 3 6 5 6 8 8 9 10 11 12 13 13 15 16 16 17 19 20 20 21 22 21 20
2 5 1 4 4 10 6 23 29 21 20 33 5 8 8 14 22 26 17 14 13 12 11 8 5 3 4 6 8 8 9 9 10 11 12 13 14 15 18 18 16 20 24 23 21 21 22 21 20
3 3 2 5 9 9 12 16 28 18 24 15 13 12 7 22 22 18 15 14 10 10 9 7 4 3 6 9 9 9 10 11 12 13 15 16 16 18 20 23 21 25 28 23 21 17 18 17 14
6 2 6 8 10 7 7 20 11 9 7 6 23 7 15 22 20 18 13 12 12 9 7 9 9 10 11 9 10 12 13 15 17 18 17 17 16 19 22 23 26 26 27 26 20 23 17 18 16
19 3 10 3 5 4 8 8 16 7 6 6 8 9 10 28 23 19 18 16 14 12 12 10 9 9 11 12 15 18 18 17 19 20 19 17 14 18 15 21 21 23 22 22 20 22 23 21 19
19 3 7 8 4 7 24 9 9 14 18 13 6 18 34 30 26 24 21 20 18 12 11 9 11 10 11 14 15 15 16 15 15 15 16 21 18 15 11 15 22 20 23 24 14 17 18 18 15
3 2 9 4 21 19 29 15 15 10 19 19 32 38 33 28 25 21 21 21 18 18 18 14 8 4 1 4 9 12 15 15 10 8 17 23 20 21 19 18 16 13 17 17 18 22 20 19 23
14 6 9 15 31 26 20 37 11 20 12 12 29 34 28 25 21 20 23 21 25 20 15 8 3 1 2 7 6 6 7 10 11 17 19 21 24 27 16 17 18 16 17 19 21 21 23 19 22
3 15 7 5 13 13 16 19 30 28 17 22 29 30 26 22 20 20 27 27 22 14 7 3 3 3 9 9 6 6 6 7 15 19 20 21 22 22 20 20 17 13 19 21 22 24 16 22 20
5 6 12 35 42 38 41 28 26 25 25 25 21 18 17 17 20 27 28 21 15 10 5 4 5 10 10 7 6 7 9 12 11 12 16 18 21 26 22 19 10 14 21 23 24 20 20 19 18
12 14 8 26 24 14 27 14 9 15 21 20 21 21 26 27 26 25 20 17 10 5 2 5 11 14 10 9 9 13 13 14 9 15 19 22 24 25 22 22 11 16 23 25 18 19 22 22 23
20 7 7 22 15 10 35 15 10 17 20 23 22 23 22 21 17 16 13 9 5 3 6 12 13 10 11 14 15 15 13 14 10 15 19 23 26 21 25 22 12 19 24 18 18 19 20 24 22
7 6 4 5 11 15 12 7 11 14 23 18 19 18 17 15 13 12 10 6 5 7 12 15 4 7 9 9 10 10 12 11 13 16 20 22 29 24 29 24 17 21 22 19 20 22 26 22 22
5 8 8 10 16 9 3 11 13 18 20 15 14 15 14 13 12 10 9 9 12 15 12 6 9 10 8 11 8 9 10 13 16 15 17 24 24 26 28 26 21 26 22 22 24 23 22 25 26
6 7 8 6 4 19 17 15 15 15 16 13 12 12 12 12 13 13 12 15 18 15 8 8 12 15 6 8 10 11 7 12 11 13 18 18 22 24 27 24 27 24 26 29 24 23 23 25 25
13 14 12 11 15 9 16 18 14 17 16 13 11 11 12 13 15 14 15 19 15 8 5 7 13 18 16 9 13 10 12 12 11 13 15 19 21 23 24 23 22 26 30 32 23 25 25 25 24
15 14 2 3 15 12 14 15 14 14 11 13 13 12 14 17 15 13 18 16 14 5 4 8 12 16 18 12 14 8 8 8 13 14 18 21 20 22 23 25 27 31 34 25 22 24 26 28 28
10 6 5 7 12 15 19 7 7 8 11 13 11 12 14 16 15 15 18 17 11 2 5 9 10 14 18 17 16 14 12 10 15 19 23 21 22 21 24 27 30 34 27 22 24 27 28 29 30
7 7 8 10 7 6 11 4 5 8 8 12 13 15 16 16 13 17 17 15 4 4 5 6 11 15 20 18 18 19 18 16 19 19 24 23 19 23 25 29 32 35 26 25 26 25 26 27 28
10 5 4 11 7 5 3 7 3 11 8 11 15 16 17 16 15 19 14 13 11 7 10 7 10 13 18 17 18 18 18 17 20 20 25 26 23 27 27 28 30 32 28 28 25 27 28 27 26
7 3 4 4 2 3 5 5 5 7 12 16 19 20 21 18 20 15 13 10 2 4 8 10 11 14 15 16 17 16 18 19 22 23 26 26 27 27 30 26 33 28 30 27 27 29 28 23 24
6 3 1 2 2 5 5 7 5 9 10 24 27 25 23 20 18 12 15 5 4 4 5 10 11 11 14 17 16 16 19 20 23 24 25 27 28 31 27 31 29 30 28 27 28 30 28 23 25
8 8 5 6 4 1 6 6 5 13 27 27 25 25 22 22 17 13 7 4 3 3 7 12 8 11 14 16 16 16 21 20 21 24 24 27 29 28 31 28 29 28 28 27 30 28 30 29 35
5 6 8 3 4 5 5 7 10 13 17 22 22 21 24 20 15 19 7 6 3 3 7 7 7 11 14 15 17 17 21 21 21 21 25 27 27 30 28 27 29 29 28 31 30 31 31 33 48
8 7 2 3 5 4 6 7 8 13 14 16 18 20 23 19 18 11 7 6 2 4 6 8 9 10 13 14 16 16 23 20 21 24 26 26 29 28 29 29 28 30 30 32 32 31 33 48 43
5 4 4 5 5 5 6 3 14 20 17 17 23 25 25 21 21 11 8 6 3 5 7 8 10 11 12 14 15 20 23 20 21 26 25 26 29 27 30 29 30 31 33 35 36 35 42 49 39
9 9 7 4 3 3 4 1 18 20 26 26 25 27 23 29 19 14 9 7 2 2 5 8 12 13 12 14 16 21 23 20 24 25 25 28 27 27 30 31 32 31 35 37 37 40 48 52 35
Wind_Direction
316 96 56 75 54 60 51 313 302 270 309 56 68 81 90 58 25 112 143 166 149 140 145 125 141 141 119 109 107 67 57 52 34 28 27 23 18 9 1 2 2 0 357 356 351 347 342 341 338
303 125 353 291 80 61 202 213 219 233 171 100 76 77 53 65 86 121 125 143 141 139 132 136 140 139 129 133 114 82 71 55 50 51 37 17 9 5 6 354 351 352 350 347 343 340 337 336 334
40 138 252 139 112 183 300 52 340 322 166 78 104 62 60 80 88 114 135 136 144 142 136 143 149 178 178 136 114 129 64 39 27 22 15 8 5 0 349 346 345 347 346 345 343 338 333 331 331
79 208 259 73 43 304 209 76 47 311 54 60 105 79 80 116 140 133 142 149 154 145 147 153 156 183 194 140 110 48 39 28 24 16 7 358 355 352 351 349 348 353 348 341 337 332 330 329 328
351 258 70 89 322 250 352 92 84 28 40 19 14 90 85 113 147 145 151 153 150 148 155 161 170 186 144 82 61 51 36 24 15 9 2 358 355 359 358 354 351 350 347 340 334 330 330 330 331
274 275 12 172 226 205 90 109 105 91 102 204 91 102 93 140 152 153 149 142 139 149 165 181 163 92 67 67 60 48 28 15 12 5 6 9 1 357 359 348 350 343 345 346 342 348 348 350 349
221 110 250 312 90 126 151 121 108 154 137 95 132 98 137 152 154 147 134 135 137 126 89 93 92 79 53 54 40 27 23 18 12 2 10 6 358 354 349 345 343 342 341 350 350 355 355 4 350
246 107 295 231 287 86 145 114 118 74 19 111 97 146 161 159 148 131 119 121 120 69 77 77 83 63 47 42 27 23 16 8 3 354 354 5 351 347 328 326 334 334 339 349 352 348 353 332 331
274 348 285 303 166 97 107 116 78 77 65 61 77 141 153 148 141 123 128 127 131 87 93 92 73 40 37 22 19 11 11 6 358 342 347 332 332 333 340 325 332 331 342 335 337 335 334 331 323
201 161 255 319 105 91 64 67 127 77 71 77 95 126 137 141 135 141 140 136 133 133 130 130 131 130 117 352 6 15 15 356 2 335 324 326 325 320 311 312 307 317 328 328 313 312 317 323 320
266 217 264 81 113 101 92 54 94 118 69 112 127 134 131 135 143 153 147 140 142 153 159 171 211 80 352 14 15 13 2 336 321 323 329 324 316 313 307 311 310 321 339 317 311 312 312 319 316
289 278 277 121 112 94 88 95 66 73 112 128 129 126 131 138 152 159 143 141 150 160 144 102 85 11 34 51 22 350 309 315 334 332 321 316 323 331 318 315 320 333 324 313 310 311 323 319 316
299 280 92 108 95 94 97 85 93 99 119 123 123 129 137 135 140 132 140 142 142 146 107 56 8 27 45 12 343 310 303 321 352 345 328 332 333 328 327 335 314 335 322 315 313 320 326 317 310
305 326 110 120 119 121 102 94 82 118 127 111 118 110 111 113 120 126 139 137 149 118 49 15 33 34 9 355 345 342 338 351 322 325 327 324 328 326 329 334 336 336 320 314 326 335 321 312 310
303 303 306 136 138 130 104 50 94 129 127 110 109 112 118 116 132 128 123 127 116 93 46 57 52 24 356 13 7 350 354 4 341 327 326 324 329 332 334 342 331 335 322 330 338 324 315 316 321
331 303 252 171 157 171 56 124 140 132 129 112 119 123 127 128 130 119 113 104 101 72 62 58 17 23 19 4 345 18 14 7 344 337 333 327 333 343 338 346 347 331 331 336 329 322 317 326 328
286 252 242 266 167 125 99 134 154 131 125 116 125 129 134 135 130 125 120 97 80 78 71 45 357 19 31 17 340 329 352 347 339 334 337 342 338 336 342 345 339 334 334 325 321 323 329 327 321
250 269 261 176 45 82 92 121 134 135 127 125 130 135 139 139 133 130 116 100 90 84 64 13 356 3 359 7 347 351 14 3 353 349 342 340 340 343 341 341 334 337 327 327 332 331 324 321 322
243 258 276 121 146 85 117 135 135 138 131 138 148 150 151 143 135 126 115 105 97 94 56 22 352 354 8 359 352 6 11 10 349 352 339 333 341 340 339 336 329 327 326 327 327 326 327 322 321
239 255 120 115 111 92 134 133 136 151 159 163 156 160 154 146 141 129 121 117 109 110 35 0 0 353 355 2 353 0 348 343 341 340 332 340 343 342 338 331 326 326 326 331 336 331 328 320 319
268 221 242 175 77 97 121 113 157 156 148 152 155 163 161 155 147 136 131 124 137 114 31 5 353 349 354 358 2 2 1 1 353 346 341 345 343 343 334 331 328 330 335 338 329 325 327 327 318
265 226 251 135 138 181 217 144 177 163 149 153 154 163 165 155 158 141 137 131 144 80 30 14 351 347 354 0 1 2 5 7 353 346 341 341 349 338 335 332 333 339 342 337 335 335 331 329 327
240 288 241 228 188 92 231 95 85 155 194 176 169 171 163 165 154 143 134 141 126 85 29 10 352 353 357 360 358 358 360 360 345 343 342 349 349 345 341 338 337 343 345 340 338 334 333 331 329
257 179 285 340 75 350 25 99 220 190 203 173 173 172 169 166 153 148 128 135 117 22 66 36 5 3 357 351 356 356 354 350 349 346 351 350 345 343 344 340 338 344 342 342 338 335 335 335 331
248 96 285 327 313 233 207 73 42 224 187 167 165 161 167 161 161 149 149 157 100 57 351 8 5 1 351 350 358 355 357 354 352 350 350 345 343 343 347 341 344 342 343 341 338 337 333 323 322
207 164 169 207 182 245 82 158 38 62 109 136 142 146 163 165 165 163 165 113 89 338 338 2 9 353 349 355 2 356 356 354 351 349 347 345 344 346 343 346 345 346 345 340 337 331 323 314 315
231 211 213 241 250 94 123 98 91 100 111 129 135 149 167 170 166 144 137 117 72 346 354 17 2 351 352 5 0 357 349 355 352 352 343 345 346 345 347 348 347 347 343 340 337 327 321 323 326
157 206 191 280 216 147 158 176 153 145 142 144 153 168 172 174 160 150 144 102 93 52 30 6 2 356 7 8 1 350 347 353 356 349 350 353 350 351 353 352 348 344 340 340 332 327 326 334 338
240 237 246 161 122 191 148 218 170 156 160 159 173 168 174 166 147 135 134 124 122 63 19 7 2 6 19 9 356 347 353 4 355 352 357 355 352 357 354 351 346 345 342 338 335 329 330 340 341
194 204 189 138 200 105 86 354 142 149 157 162 161 168 166 151 134 136 149 147 151 77 18 9 6 19 17 4 354 352 2 7 355 358 0 354 357 357 354 354 351 346 344 339 334 330 334 339 337
Height
1510 1511 1511 1511 1522 1523 1536 1537 1528 1515 1514 1511 1495 1502 1526 1534 1537 1550 1552 1554 1556 1557 1558 1560 1560 1559 1560 1560 1560 1559 1559 1558 1557 1556 1556 1555 1554 1554 1552 1551 1549 1547 1547 1545 1544 1541 1539 1537 1535
1509 1510 1511 1511 1528 1543 1535 1529 1528 1506 1508 1504 1506 1519 1526 1541 1542 1547 1553 1554 1556 1558 1559 1560 1560 1560 1560 1560 1560 1560 1559 1559 1558 1558 1557 1556 1555 1554 1553 1551 1549 1547 1545 1544 1542 1540 1537 1535 1533
1509 1509 1512 1514 1528 1541 1534 1522 1523 1524 1510 1501 1514 1525 1537 1549 1550 1551 1553 1554 1556 1558 1560 1560 1561 1560 1560 1559 1559 1559 1559 1559 1559 1558 1558 1557 1556 1554 1552 1551 1548 1546 1544 1542 1540 1537 1535 1533 1531
1510 1512 1513 1522 1529 1524 1524 1532 1532 1518 1510 1508 1514 1530 1541 1548 1551 1552 1554 1556 1557 1558 1560 1561 1560 1560 1559 1558 1558 1559 1560 1559 1559 1558 1558 1557 1555 1554 1552 1550 1548 1545 1543 1541 1538 1536 1533 1531 1529
1508 1509 1517 1527 1528 1523 1509 1523 1523 1522 1513 1527 1523 1542 1546 1552 1551 1552 1555 1557 1558 1558 1560 1560 1560 1560 1559 1559 1560 1560 1561 1560 1559 1558 1558 1557 1555 1553 1551 1549 1547 1545 1543 1540 1537 1534 1531 1529 1527
1508 1506 1522 1528 1519 1507 1515 1519 1511 1524 1508 1525 1540 1539 1549 1552 1553 1554 1556 1558 1559 1558 1559 1560 1561 1562 1561 1561 1561 1561 1561 1560 1559 1558 1557 1556 1554 1553 1551 1548 1547 1544 1541 1538 1536 1533 1530 1528 1526
1508 1512 1518 1510 1506 1502 1509 1518 1517 1521 1516 1519 1520 1538 1548 1552 1554 1556 1557 1560 1559 1559 1561 1562 1563 1564 1564 1563 1562 1562 1561 1561 1559 1558 1557 1556 1553 1552 1550 1547 1545 1543 1540 1537 1534 1532 1530 1528 1525
1504 1508 1511 1504 1506 1508 1510 1512 1521 1524 1525 1525 1523 1535 1546 1548 1553 1556 1559 1562 1561 1562 1564 1563 1563 1563 1564 1566 1565 1563 1562 1560 1559 1557 1557 1556 1554 1552 1551 1549 1545 1542 1540 1537 1533 1531 1528 1528 1525
1502 1514 1517 1507 1501 1511 1509 1515 1525 1531 1526 1526 1529 1533 1540 1548 1555 1555 1563 1564 1564 1566 1565 1565 1564 1563 1564 1565 1565 1564 1562 1560 1558 1556 1555 1555 1553 1551 1549 1547 1544 1540 1537 1534 1533 1531 1529 1525 1523
1501 1513 1507 1496 1502 1514 1516 1513 1521 1531 1534 1539 1539 1541 1547 1553 1555 1559 1562 1564 1566 1565 1566 1567 1567 1567 1566 1565 1565 1564 1562 1560 1558 1556 1554 1553 1551 1549 1547 1544 1541 1539 1537 1535 1531 1528 1526 1523 1520
1497 1507 1494 1502 1502 1504 1512 1517 1529 1532 1542 1547 1545 1545 1551 1556 1559 1562 1564 1565 1561 1565 1567 1568 1568 1567 1567 1567 1567 1566 1564 1560 1558 1555 1553 1551 1549 1546 1542 1540 1538 1537 1535 1531 1527 1525 1523 1520 1517
1499 1491 1491 1504 1503 1505 1512 1527 1535 1532 1546 1551 1551 1550 1554 1558 1561 1563 1560 1562 1564 1565 1567 1568 1568 1567 1566 1566 1567 1565 1562 1559 1556 1554 1551 1549 1547 1544 1541 1538 1536 1534 1531 1527 1525 1522 1520 1518 1515
1495 1491 1494 1498 1499 1509 1513 1528 1533 1546 1551 1554 1555 1556 1558 1559 1558 1561 1561 1563 1564 1565 1568 1568 1568 1566 1566 1566 1567 1563 1561 1559 1555 1552 1549 1547 1545 1542 1538 1536 1534 1532 1528 1525 1522 1519 1517 1514 1510
1491 1490 1497 1500 1500 1510 1513 1533 1536 1553 1554 1553 1553 1555 1556 1557 1561 1562 1563 1564 1565 1567 1568 1568 1566 1567 1568 1567 1565 1562 1560 1558 1555 1551 1548 1547 1544 1540 1537 1534 1531 1529 1525 1522 1519 1517 1514 1510 1508
1490 1493 1489 1496 1497 1510 1500 1536 1547 1551 1551 1553 1555 1558 1559 1561 1562 1563 1564 1565 1566 1567 1568 1568 1568 1569 1568 1566 1563 1561 1559 1556 1554 1551 1548 1546 1543 1539 1536 1532 1529 1527 1523 1520 1517 1514 1510 1507 1504
1495 1492 1501 1490 1495 1500 1504 1550 1550 1551 1551 1555 1556 1558 1560 1561 1562 1564 1565 1565 1566 1568 1568 1568 1572 1569 1567 1565 1563 1561 1559 1556 1554 1551 1548 1545 1541 1537 1534 1531 1528 1525 1521 1518 1514 1511 1507 1504 1501
1498 1511 1501 1491 1486 1498 1510 1544 1549 1551 1551 1556 1557 1559 1561 1562 1563 1564 1565 1567 1569 1570 1571 1571 1570 1568 1566 1564 1562 1560 1558 1556 1554 1550 1547 1544 1540 1537 1532 1529 1526 1522 1518 1514 1511 1507 1504 1500 1496
1509 1504 1495 1496 1505 1503 1522 1537 1546 1551 1554 1557 1559 1560 1562 1563 1565 1566 1567 1570 1571 1573 1573 1571 1569 1568 1566 1563 1560 1559 1557 1556 1554 1550 1547 1543 1540 1536 1532 1528 1524 1519 1515 1511 1507 1503 1500 1497 1493
1491 1492 1494 1486 1499 1509 1525 1535 1545 1550 1553 1556 1558 1560 1561 1564 1566 1567 1569 1571 1573 1574 1574 1571 1569 1567 1565 1562 1560 1558 1557 1555 1552 1549 1546 1543 1539 1535 1530 1526 1521 1517 1512 1508 1504 1500 1496 1492 1489
1487 1490 1493 1486 1494 1506 1534 1540 1547 1551 1554 1556 1558 1561 1562 1564 1566 1569 1570 1572 1574 1574 1574 1572 1569 1568 1565 1563 1560 1558 1556 1553 1551 1548 1545 1541 1537 1533 1528 1523 1519 1514 1509 1504 1501 1497 1492 1488 1486
1482 1485 1484 1490 1496 1515 1528 1546 1550 1552 1553 1556 1558 1562 1564 1565 1567 1569 1572 1573 1574 1574 1574 1572 1570 1568 1566 1562 1560 1557 1554 1552 1549 1546 1542 1539 1536 1531 1526 1521 1516 1512 1506 1502 1498 1494 1490 1485 1482
1489 1469 1472 1481 1492 1518 1502 1546 1546 1551 1555 1558 1562 1563 1564 1565 1569 1571 1572 1572 1574 1574 1574 1573 1571 1568 1565 1562 1559 1557 1554 1551 1549 1546 1542 1537 1533 1529 1524 1519 1514 1509 1504 1500 1495 1491 1487 1483 1478
1476 1465 1470 1473 1486 1493 1499 1526 1546 1546 1551 1557 1561 1562 1564 1565 1569 1571 1572 1575 1574 1575 1575 1574 1571 1568 1565 1563 1560 1557 1554 1551 1548 1544 1540 1535 1531 1527 1522 1516 1511 1506 1501 1497 1493 1488 1484 1480 1476
1463 1466 1468 1472 1483 1509 1505 1511 1535 1534 1529 1546 1557 1560 1562 1566 1569 1572 1575 1574 1575 1575 1576 1574 1571 1568 1565 1563 1560 1557 1554 1550 1546 1542 1538 1533 1529 1524 1519 1514 1509 1504 1499 1494 1490 1485 1481 1477 1473
1463 1478 1506 1512 1513 1517 1491 1510 1527 1515 1519 1532 1545 1556 1561 1566 1569 1572 1574 1574 1575 1576 1576 1574 1572 1568 1566 1563 1560 1557 1553 1550 1546 1541 1537 1532 1526 1521 1516 1512 1506 1502 1497 1492 1487 1482 1477 1473 1468
1467 1476 1503 1515 1512 1498 1491 1521 1539 1531 1528 1542 1550 1556 1561 1566 1569 1572 1573 1574 1575 1576 1574 1573 1571 1568 1565 1563 1560 1556 1553 1549 1545 1541 1536 1531 1525 1520 1515 1510 1505 1500 1494 1489 1484 1478 1473 1468 1463
1463 1474 1463 1483 1478 1498 1519 1535 1540 1542 1543 1548 1552 1557 1561 1565 1570 1572 1573 1575 1576 1574 1573 1572 1571 1568 1565 1563 1559 1556 1552 1548 1544 1540 1535 1529 1524 1518 1513 1508 1503 1497 1492 1486 1480 1474 1468 1463 1455
1453 1452 1480 1481 1497 1510 1520 1526 1531 1544 1546 1549 1555 1558 1560 1565 1569 1570 1573 1575 1576 1574 1573 1571 1570 1568 1565 1563 1559 1555 1552 1547 1543 1538 1533 1528 1522 1516 1511 1506 1500 1494 1489 1482 1475 1469 1464 1456 1445
1455 1461 1460 1466 1474 1502 1515 1522 1509 1527 1540 1545 1552 1555 1558 1564 1567 1569 1573 1575 1576 1574 1572 1571 1569 1567 1565 1562 1559 1555 1551 1546 1542 1537 1532 1527 1521 1515 1510 1504 1498 1492 1485 1478 1472 1465 1458 1449 1439
1441 1452 1455 1480 1477 1477 1501 1520 1507 1523 1536 1542 1548 1552 1559 1563 1566 1569 1573 1575 1574 1573 1572 1571 1569 1567 1565 1562 1558 1554 1550 1546 1541 1536 1531 1526 1520 1515 1509 1502 1496 1489 1482 1475 1467 1459 1451 1442 1434